TimeIST,TemperatureF,Dew PointF,Humidity,Sea Level PressureIn,VisibilityMPH,Wind Direction,Wind SpeedMPH,Gust SpeedMPH,PrecipitationIn,Events,Conditions,WindDirDegrees,DateUTC
1:00 AM,44,43,95,30.15,,North,4.5,,,,,350,2012-10-07 00:00:00
7:00 AM,41,40,94,30.18,,East,4.5,,,,,90,2012-10-07 06:00:00
7:30 AM,41.0,39.2,93,30.15,-9999.0,East,5.8,-,N/A,,Clear,100,2012-10-07 06:30:00
8:00 AM,41.0,39.2,93,30.15,-9999.0,ESE,6.9,-,N/A,,Clear,110,2012-10-07 07:00:00
8:30 AM,42.8,41.0,93,30.15,-9999.0,ESE,8.1,-,N/A,,Clear,110,2012-10-07 07:30:00
9:00 AM,42.8,41.0,93,30.15,-9999.0,ESE,8.1,-,N/A,,Clear,110,2012-10-07 08:00:00
9:30 AM,44.6,42.8,93,30.18,-9999.0,East,6.9,-,N/A,,Clear,100,2012-10-07 08:30:00
10:00 AM,46.4,41.0,81,30.18,-9999.0,East,5.8,-,N/A,,Clear,90,2012-10-07 09:00:00
10:30 AM,48.2,42.8,82,30.18,-9999.0,ESE,6.9,-,N/A,,Clear,110,2012-10-07 09:30:00
11:00 AM,48.2,42.8,82,30.18,-9999.0,ESE,6.9,-,N/A,,Clear,110,2012-10-07 10:00:00
11:30 AM,48.2,41.0,76,30.18,-9999.0,East,9.2,-,N/A,,Clear,100,2012-10-07 10:30:00
12:00 PM,48.2,39.2,71,30.18,-9999.0,ESE,8.1,-,N/A,,Clear,110,2012-10-07 11:00:00
12:30 PM,48.2,41.0,76,30.18,6.2,ESE,9.2,-,N/A,,Mostly Cloudy,110,2012-10-07 11:30:00
1:00 PM,49,40,61,30.19,37,ESE,8.9,,,,Scattered Clouds,110,2012-10-07 12:00:00
1:00 PM,50.0,39.2,66,30.18,6.2,ESE,8.1,-,N/A,,Mostly Cloudy,110,2012-10-07 12:00:00
1:30 PM,50.0,39.2,66,30.15,6.2,SE,9.2,-,N/A,,Mostly Cloudy,130,2012-10-07 12:30:00
2:00 PM,50.0,39.2,66,30.15,6.2,SE,9.2,-,N/A,,Mostly Cloudy,130,2012-10-07 13:00:00
2:30 PM,51.8,39.2,62,30.15,6.2,ESE,9.2,-,N/A,,Mostly Cloudy,120,2012-10-07 13:30:00
3:00 PM,51.8,41.0,67,30.12,6.2,ESE,9.2,-,N/A,,Mostly Cloudy,120,2012-10-07 14:00:00
3:30 PM,50.0,41.0,71,30.12,6.2,ESE,9.2,-,N/A,,Mostly Cloudy,120,2012-10-07 14:30:00
4:00 PM,50.0,41.0,71,30.12,6.2,ESE,6.9,-,N/A,,Mostly Cloudy,110,2012-10-07 15:00:00
4:30 PM,50.0,42.8,76,30.12,6.2,East,8.1,-,N/A,,Mostly Cloudy,100,2012-10-07 15:30:00
5:00 PM,50.0,42.8,76,30.12,6.2,East,6.9,-,N/A,,Overcast,100,2012-10-07 16:00:00
5:30 PM,50.0,42.8,76,30.09,6.2,East,8.1,-,N/A,,Overcast,90,2012-10-07 16:30:00
6:00 PM,48.2,42.8,82,30.12,6.2,East,6.9,-,N/A,,Overcast,90,2012-10-07 17:00:00
6:30 PM,48.2,42.8,82,30.12,6.2,East,6.9,-,N/A,,Overcast,90,2012-10-07 17:30:00
7:00 PM,47,43,80,30.14,31,East,6.7,,,,Overcast,100,2012-10-07 18:00:00